DW4776 Weather Reports


Display with metric or nautical units.
time (UTC)temp
F
wind
direction
speed
MPH
gust
MPH
rain 1hr
in
rain 24hr
in
rain mn
in
humidity
%
barometer
mb
20260903064542 52 210 5.0 9.0 0.00 0.09 0.00 76 1006.5
20260903063109 51 176 3.0 7.0 0.00 0.09 0.00 79 1006.8
20260903061543 51 203 2.0 5.0 0.00 0.09 0.00 80 1006.8
20260903060049 52 217 1.0 5.0 0.00 0.09 0.00 79 1006.7
20260903054545 52 224 4.0 9.0 0.00 0.09 0.09 78 1006.7
20260903053044 53 193 6.0 10.0 0.00 0.09 0.09 77 1006.8
20260903051548 53 206 6.0 14.0 0.00 0.09 0.09 74 1006.8
20260903050107 54 204 9.0 18.0 0.00 0.09 0.09 71 1006.9
20260903044543 55 240 18.0 29.0 0.00 0.09 0.09 68 1007.1
20260903043044 54 223 12.0 23.0 0.00 0.09 0.09 71 1007.2
20260903041552 51 219 10.0 21.0 0.00 0.09 0.09 78 1007.2
20260903040054 51 214 5.0 10.0 0.00 0.09 0.09 77 1007.1
20260903034544 52 209 7.0 12.0 0.00 0.09 0.09 77 1007.1
20260903033051 52 223 7.0 12.0 0.00 0.09 0.09 77 1007.0
20260903031545 52 197 4.0 7.0 0.00 0.09 0.09 78 1007.1
20260903030048 54 227 6.0 13.0 0.00 0.09 0.09 75 1006.8
20260903024541 54 252 8.0 20.0 0.00 0.09 0.09 73 1006.7
20260903023051 55 245 11.0 28.0 0.00 0.09 0.09 72 1006.8
20260903021548 56 220 19.0 28.0 0.00 0.09 0.09 78 1007.3
20260903020049 57 210 9.0 14.0 0.00 0.09 0.09 80 1006.5
20260903014550 58 183 8.0 14.0 0.00 0.09 0.09 80 1006.7
20260903013050 58 168 8.0 11.0 0.01 0.09 0.09 77 1006.8
20260903011559 59 106 4.0 8.0 0.01 0.09 0.09 79 1006.6
20260903010043 58 50 1.0 6.0 0.02 0.09 0.09 79 1006.1
20260903004544 58 40 4.0 12.0 0.02 0.09 0.09 82 1005.8
20260903003045 58 25 3.0 8.0 0.04 0.08 0.08 79 1006.7
20260903001546 59 0 0.0 8.0 0.05 0.08 0.08 75 1007.5
20260903000044 59 182 7.0 29.0 0.07 0.07 0.07 73 1008.1
20260902234546 58 207 12.0 30.0 0.07 0.07 0.07 74 1008.2
20260902233054 58 172 25.0 43.0 0.04 0.04 0.04 72 1007.5
20260902231554 59 199 20.0 43.0 0.03 0.03 0.03 70 1006.6
20260902230044 72 173 42.0 61.0 0.00 0.00 0.00 36 1006.4
20260902224552 80 187 6.0 13.0 0.00 0.00 0.00 23 1003.2
20260902223048 81 225 5.0 11.0 0.00 0.00 0.00 26 1003.2
20260902221549 82 243 3.0 11.0 0.00 0.00 0.00 26 1003.5
20260902220044 83 169 4.0 14.0 0.00 0.00 0.00 26 1003.8
20260902214544 82 127 6.0 15.0 0.00 0.00 0.00 26 1003.9
20260902213053 81 168 10.0 17.0 0.00 0.00 0.00 27 1003.9
20260902211553 81 204 11.0 19.0 0.00 0.00 0.00 27 1004.1
20260902210044 80 208 5.0 18.0 0.00 0.00 0.00 28 1004.6
20260902204545 79 183 9.0 16.0 0.00 0.00 0.00 30 1005.0
20260902203046 79 187 10.0 18.0 0.00 0.00 0.00 30 1005.2
20260902201543 79 129 6.0 15.0 0.00 0.00 0.00 30 1005.3
20260902200044 78 182 7.0 15.0 0.00 0.00 0.00 32 1005.5
20260902194544 77 170 12.0 17.0 0.00 0.00 0.00 33 1005.7
20260902193048 77 189 10.0 15.0 0.00 0.00 0.00 34 1005.7
20260902191545 77 223 14.0 20.0 0.00 0.00 0.00 34 1005.8
20260902190046 77 178 8.0 19.0 0.00 0.00 0.00 36 1005.8
20260902184552 76 183 8.0 19.0 0.00 0.00 0.00 37 1006.1
20260902183047 74 177 9.0 16.0 0.00 0.00 0.00 39 1006.5
20260902181546 73 195 12.0 18.0 0.00 0.00 0.00 39 1006.7
20260902180103 73 182 11.0 19.0 0.00 0.00 0.00 40 1006.7
20260902174544 72 169 15.0 23.0 0.00 0.00 0.00 41 1006.8
20260902173050 71 191 16.0 23.0 0.00 0.00 0.00 41 1007.0
20260902171548 71 195 12.0 18.0 0.00 0.00 0.00 42 1006.9
20260902170044 71 187 10.0 16.0 0.00 0.00 0.00 42 1006.7
20260902164545 71 187 9.0 15.0 0.00 0.00 0.00 42 1006.6
20260902163056 71 202 9.0 14.0 0.00 0.00 0.00 42 1006.7
20260902161553 70 183 8.0 14.0 0.00 0.00 0.00 45 1007.0
20260902160042 68 207 10.0 14.0 0.00 0.00 0.00 46 1007.3
20260902154543 67 207 7.0 13.0 0.00 0.00 0.00 48 1007.1
20260902153045 64 204 7.0 11.0 0.00 0.00 0.00 50 1007.2
20260902151544 63 194 5.0 8.0 0.00 0.00 0.00 50 1007.5
20260902150043 62 209 5.0 8.0 0.00 0.00 0.00 51 1007.7
20260902144542 62 192 5.0 8.0 0.00 0.00 0.00 52 1007.9
20260902143046 61 206 5.0 8.0 0.00 0.00 0.00 54 1008.0
20260902141543 60 183 4.0 8.0 0.00 0.00 0.00 55 1008.2
20260902140043 59 159 2.0 7.0 0.00 0.00 0.00 58 1008.2
20260902134548 57 266 1.0 3.0 0.00 0.00 0.00 61 1007.9
20260902133044 56 264 2.0 4.0 0.00 0.00 0.00 62 1007.6
20260902131545 55 211 5.0 11.0 0.00 0.00 0.00 63 1007.5
20260902130046 54 190 7.0 12.0 0.00 0.00 0.00 63 1007.5
20260902124548 55 236 4.0 7.0 0.00 0.00 0.00 62 1006.9
20260902123054 55 283 4.0 7.0 0.00 0.00 0.00 62 1006.9
20260902121540 54 268 5.0 7.0 0.00 0.00 0.00 62 1007.3
20260902120043 53 270 5.0 7.0 0.00 0.00 0.00 64 1007.6
20260902114546 52 247 2.0 5.0 0.00 0.00 0.00 66 1008.0
20260902113047 52 245 2.0 7.0 0.00 0.00 0.00 66 1008.3
20260902111548 52 238 3.0 7.0 0.00 0.00 0.00 64 1008.6
20260902110047 53 229 5.0 8.0 0.00 0.00 0.00 65 1008.4
20260902104553 52 59 2.0 4.0 0.00 0.00 0.00 66 1008.2
20260902103045 51 58 2.0 4.0 0.00 0.00 0.00 65 1007.8
20260902101542 52 58 2.0 5.0 0.00 0.00 0.00 64 1008.0
20260902100057 53 96 4.0 6.0 0.00 0.00 0.00 61 1008.0
20260902094546 55 80 3.0 5.0 0.00 0.00 0.00 58 1007.8
20260902093046 55 25 2.0 5.0 0.00 0.00 0.00 58 1008.0
20260902091539 56 64 2.0 4.0 0.00 0.00 0.00 56 1008.2
20260902090045 58 68 2.0 4.0 0.00 0.00 0.00 53 1008.4
20260902084557 59 35 2.0 4.0 0.00 0.00 0.00 51 1008.7
20260902083046 61 84 1.0 3.0 0.00 0.00 0.00 48 1008.8
20260902081559 62 88 2.0 4.0 0.00 0.00 0.00 47 1008.7
20260902080044 64 40 3.0 8.0 0.00 0.00 0.00 44 1008.8
20260902074543 63 189 4.0 11.0 0.00 0.00 0.00 45 1008.8
20260902073051 63 94 2.0 4.0 0.00 0.00 0.00 44 1008.8
20260902071544 64 252 0.0 3.0 0.00 0.00 0.00 43 1008.8
20260902070046 64 252 1.0 3.0 0.00 0.00 0.00 43 1008.7